Location: Karaa?a�
(36.7158°N, 30.4165°E)
Time: 00:58:07
(UTC+00:00)

Meteor 2-12 Rocket - Pass Details

Date: 09 April 2020
Orbit: 935 x 958 km, 82.5° (Epoch: 24 May)

Event Time Altitude Azimuth Distance (km) Brightness Sun altitude
Rises 19:05:33 0° 353° (N) 3,617 8.1 -29.5°
Reaches altitude 10° 19:08:03 10° 353° (N) 2,665 7.3 -29.9°
Enters shadow 19:13:30 73° 357° (N) 981 4.5 -30.7°
